Location: Bosdarros
(43.2167°N, 0.3667°W)
Time: 15:47:44
(UTC+00:00)

Okean 3 Rocket - Pass Details

Date: 22 April 2021
Orbit: 615 x 645 km, 82.5° (Epoch: 13 May)

Event Time Altitude Azimuth Distance (km) Brightness Sun altitude
Rises 20:38:19 0° 358° (N) 2,959 7.6 -17.8°
Reaches altitude 10° 20:40:43 10° 7° (N) 2,041 6.6 -18.1°
Maximum altitude 20:44:58 39° 76° (ENE) 954 4.2 -18.7°
Enters shadow 20:45:39 37° 99° (E) 995 4.1 -18.8°
